Location: Mountain_View
(35.6670°N, 81.4000°W)
Time: 02:47:32
(UTC-05:00)

LightSail 2 - Pass Details

Date: 28 November 2019
Orbit: 696 x 730 km, 24.0° (Epoch: 07 December)

Event Time Altitude Azimuth Distance (km) Brightness Sun altitude
Rises 18:45:23 0° 211° (SSW) 3,070 9.1 -18.5°
Reaches altitude 10° 18:50:18 10° 170° (S) 2,145 7.6 -19.5°
Maximum altitude 18:51:00 10° 162° (SSE) 2,126 7.5 -19.6°
Drops below altitude 10° 18:51:43 10° 153° (SSE) 2,144 7.5 -19.7°
Enters shadow 18:52:27 - 145° (SE) 2,200 7.5 -19.9°
